Location: Ethel Rock
(53.4667°N, 4.5667°W)
Time: 03:55:19
(UTC+00:00)

Cosmos 1697 Rocket - Pass Details

Date: 24 October 2020
Orbit: 831 x 845 km, 71.0° (Epoch: 25 November)

Event Time Altitude Azimuth Distance (km) Brightness Sun altitude
Exits shadow 05:15:46 - 325° (NW) 2,888 5.2 -16.5°
Reaches altitude 10° 05:16:53 10° 324° (NW) 2,468 4.8 -16.3°
Maximum altitude 05:22:29 65° 244° (WSW) 928 2.7 -15.5°
Drops below altitude 10° 05:28:04 10° 164° (SSE) 2,459 5.3 -14.7°
Sets 05:30:31 0° 161° (SSE) 3,391 6.1 -14.3°
